Tracking 29892 objects as of 21-Nov-2024
HD Live streaming from Space Station
objects crossing your sky now

STARLINK-5622

Track STARLINK-5622 now!
10-day predictions
STARLINK-5622 is classified as:


NORAD ID: 55358
Int'l Code: 2023-013AD
Perigee: 565.5 km
Apogee: 566.9 km
Inclination: 43.0 °
Period: 95.8 minutes
Semi major axis: 6937 km
RCS: Unknown
Launch date: January 26, 2023
Source: United States (US)
Launch site: AIR FORCE EASTERN TEST RANGE (AFETR)
Your satellite tracking list
Your tracking list is empty




NASA's NSSDC Master Catalog

Two Line Element Set (TLE):
1 55358U 23013AD  24325.44403334  .00000515  00000-0  53187-4 0  9995
2 55358  43.0038 356.9874 0001024 262.7603  97.3123 15.02535936100376
Source of the keplerian elements: AFSPC